| time (UTC) | temp F | wind direction | speed knots | gust knots | rain 1hr in | rain 24hr in | rain mn in | humidity % | barometer mb |
| 20260506004559 | 63 | 94 | 12.2 | 16.5 | 0.00 | 0.00 | 0.00 | 34 | 1006.0 |
| 20260506003045 | 64 | 92 | 13.0 | 16.5 | 0.00 | 0.00 | 0.00 | 32 | 1006.0 |
| 20260506001545 | 64 | 86 | 10.4 | 18.2 | 0.00 | 0.00 | 0.00 | 32 | 1006.0 |
| 20260506000110 | 66 | 54 | 10.4 | 15.6 | 0.00 | 0.00 | 0.00 | 30 | 1005.8 |
| 20260505234547 | 66 | 77 | 12.2 | 17.4 | 0.00 | 0.00 | 0.00 | 30 | 1005.7 |
| 20260505233041 | 67 | 86 | 13.9 | 20.0 | 0.00 | 0.00 | 0.00 | 29 | 1005.4 |
| 20260505231541 | 68 | 78 | 14.8 | 20.0 | 0.00 | 0.00 | 0.00 | 28 | 1005.1 |
| 20260505230058 | 68 | 65 | 11.3 | 20.9 | 0.00 | 0.00 | 0.00 | 27 | 1005.2 |
| 20260505224542 | 69 | 46 | 7.8 | 17.4 | 0.00 | 0.00 | 0.00 | 26 | 1005.1 |
| 20260505223039 | 69 | 41 | 11.3 | 17.4 | 0.00 | 0.00 | 0.00 | 26 | 1005.2 |
| 20260505221536 | 68 | 39 | 11.3 | 16.5 | 0.00 | 0.00 | 0.00 | 26 | 1005.4 |
| 20260505220034 | 68 | 79 | 10.4 | 16.5 | 0.00 | 0.00 | 0.00 | 27 | 1005.6 |
| 20260505214533 | 68 | 65 | 11.3 | 17.4 | 0.00 | 0.00 | 0.00 | 26 | 1005.8 |
| 20260505213034 | 68 | 63 | 10.4 | 17.4 | 0.00 | 0.00 | 0.00 | 26 | 1005.7 |
| 20260505211536 | 69 | 30 | 9.6 | 14.8 | 0.00 | 0.00 | 0.00 | 25 | 1005.9 |
| 20260505210032 | 69 | 95 | 11.3 | 17.4 | 0.00 | 0.00 | 0.00 | 25 | 1005.9 |
| 20260505204543 | 69 | 65 | 7.8 | 14.8 | 0.00 | 0.00 | 0.00 | 25 | 1005.9 |
| 20260505203034 | 69 | 57 | 6.1 | 11.3 | 0.00 | 0.00 | 0.00 | 24 | 1006.0 |
| 20260505201531 | 69 | 15 | 9.6 | 12.2 | 0.00 | 0.00 | 0.00 | 23 | 1005.8 |
| 20260505200028 | 69 | 30 | 7.0 | 13.9 | 0.00 | 0.00 | 0.00 | 24 | 1006.1 |
| 20260505194534 | 69 | 309 | 6.1 | 17.4 | 0.00 | 0.00 | 0.00 | 23 | 1006.0 |
| 20260505193127 | 69 | 46 | 7.0 | 15.6 | 0.00 | 0.00 | 0.00 | 24 | 1006.0 |
| 20260505191526 | 68 | 19 | 7.8 | 13.9 | 0.00 | 0.00 | 0.00 | 25 | 1006.0 |
| 20260505190036 | 67 | 80 | 7.0 | 14.8 | 0.00 | 0.00 | 0.00 | 26 | 1006.0 |
| 20260505184531 | 69 | 149 | 4.3 | 9.6 | 0.00 | 0.00 | 0.00 | 25 | 1006.0 |
| 20260505183025 | 68 | 84 | 7.8 | 13.0 | 0.00 | 0.00 | 0.00 | 24 | 1006.6 |
| 20260505181522 | 67 | 46 | 7.8 | 12.2 | 0.00 | 0.00 | 0.00 | 24 | 1006.3 |
| 20260505180025 | 66 | 58 | 7.0 | 11.3 | 0.00 | 0.00 | 0.00 | 25 | 1006.2 |
| 20260505174519 | 65 | 24 | 3.5 | 13.0 | 0.00 | 0.00 | 0.00 | 27 | 1006.0 |
| 20260505173016 | 65 | 9 | 10.4 | 17.4 | 0.00 | 0.00 | 0.00 | 27 | 1006.2 |
| 20260505171515 | 65 | 333 | 12.2 | 17.4 | 0.00 | 0.00 | 0.00 | 26 | 1005.5 |
| 20260505170014 | 64 | 343 | 13.9 | 20.9 | 0.00 | 0.00 | 0.00 | 26 | 1005.6 |
| 20260505164514 | 64 | 335 | 14.8 | 20.0 | 0.00 | 0.00 | 0.00 | 26 | 1005.5 |
| 20260505163016 | 64 | 344 | 14.8 | 20.9 | 0.00 | 0.00 | 0.00 | 26 | 1005.9 |
| 20260505161511 | 64 | 344 | 12.2 | 17.4 | 0.00 | 0.00 | 0.00 | 27 | 1005.6 |
| 20260505153008 | 64 | 337 | 13.0 | 18.2 | 0.00 | 0.00 | 0.00 | 29 | 1005.1 |
| 20260505151505 | 64 | 326 | 10.4 | 17.4 | 0.00 | 0.00 | 0.00 | 30 | 1004.9 |
| 20260505124553 | 62 | 299 | 13.9 | 20.9 | 0.00 | 0.00 | 0.00 | 31 | 1002.3 |
| 20260505123053 | 63 | 294 | 17.4 | 26.9 | 0.00 | 0.00 | 0.00 | 27 | 1002.3 |
| 20260505121610 | 66 | 298 | 17.4 | 22.6 | 0.00 | 0.00 | 0.00 | 16 | 1002.2 |
| 20260505120035 | 67 | 292 | 14.8 | 19.1 | 0.00 | 0.00 | 0.00 | 15 | 1001.9 |
| 20260505114535 | 67 | 281 | 13.9 | 20.0 | 0.00 | 0.00 | 0.00 | 15 | 1001.6 |
| 20260505113032 | 68 | 292 | 14.8 | 19.1 | 0.00 | 0.00 | 0.00 | 13 | 1001.1 |
| 20260505111537 | 69 | 270 | 13.9 | 20.0 | 0.00 | 0.00 | 0.00 | 13 | 1000.6 |
| 20260505101525 | 70 | 267 | 15.6 | 21.7 | 0.00 | 0.00 | 0.00 | 13 | 1000.3 |
| 20260505100033 | 69 | 250 | 14.8 | 22.6 | 0.00 | 0.00 | 0.00 | 14 | 1000.4 |
| 20260505094521 | 70 | 229 | 13.9 | 22.6 | 0.00 | 0.00 | 0.00 | 13 | 1000.3 |
| 20260505093026 | 71 | 257 | 14.8 | 23.5 | 0.00 | 0.00 | 0.00 | 12 | 1000.4 |
| 20260505091518 | 71 | 273 | 14.8 | 22.6 | 0.00 | 0.00 | 0.00 | 12 | 1000.5 |
| 20260505090017 | 71 | 253 | 12.2 | 19.1 | 0.00 | 0.00 | 0.00 | 12 | 1000.7 |
| 20260505084518 | 72 | 259 | 12.2 | 18.2 | 0.00 | 0.00 | 0.00 | 11 | 1000.8 |
| 20260505083020 | 71 | 279 | 12.2 | 18.2 | 0.00 | 0.00 | 0.00 | 12 | 1000.6 |
| 20260505081516 | 70 | 236 | 11.3 | 15.6 | 0.00 | 0.00 | 0.00 | 14 | 1000.7 |
| 20260505080014 | 69 | 246 | 10.4 | 13.0 | 0.00 | 0.00 | 0.00 | 15 | 1000.9 |
| 20260505074510 | 68 | 229 | 8.7 | 12.2 | 0.00 | 0.00 | 0.00 | 15 | 1001.2 |
| 20260505073007 | 68 | 238 | 7.0 | 10.4 | 0.00 | 0.00 | 0.00 | 16 | 1001.4 |
| 20260505071502 | 68 | 209 | 6.1 | 9.6 | 0.00 | 0.00 | 0.00 | 16 | 1001.5 |
| 20260505070104 | 69 | 225 | 6.1 | 9.6 | 0.00 | 0.00 | 0.00 | 15 | 1001.6 |
| 20260505064607 | 70 | 244 | 7.0 | 11.3 | 0.00 | 0.00 | 0.00 | 15 | 1001.7 |
| 20260505063055 | 70 | 233 | 7.8 | 11.3 | 0.00 | 0.00 | 0.00 | 15 | 1001.7 |
| 20260505061554 | 70 | 209 | 7.0 | 9.6 | 0.00 | 0.00 | 0.00 | 15 | 1001.8 |
| 20260505060051 | 71 | 219 | 7.0 | 10.4 | 0.00 | 0.00 | 0.00 | 14 | 1002.1 |
| 20260505054616 | 72 | 217 | 7.8 | 12.2 | 0.00 | 0.00 | 0.00 | 13 | 1002.0 |
| 20260505053051 | 71 | 217 | 7.8 | 11.3 | 0.00 | 0.00 | 0.00 | 14 | 1002.1 |
| 20260505051548 | 70 | 200 | 7.0 | 9.6 | 0.00 | 0.00 | 0.00 | 14 | 1002.0 |
| 20260505041546 | 71 | 241 | 5.2 | 8.7 | 0.00 | 0.00 | 0.00 | 13 | 1002.3 |
| 20260505040028 | 71 | 213 | 7.0 | 8.7 | 0.00 | 0.00 | 0.00 | 13 | 1002.3 |
| 20260505034524 | 72 | 231 | 8.7 | 13.0 | 0.00 | 0.00 | 0.00 | 12 | 1002.4 |
| 20260505033023 | 73 | 240 | 8.7 | 12.2 | 0.00 | 0.00 | 0.00 | 12 | 1002.2 |
| 20260505031527 | 73 | 232 | 9.6 | 12.2 | 0.00 | 0.00 | 0.00 | 12 | 1002.3 |
| 20260505030012 | 74 | 252 | 8.7 | 11.3 | 0.00 | 0.00 | 0.00 | 11 | 1002.1 |
| 20260505024507 | 75 | 238 | 7.8 | 12.2 | 0.00 | 0.00 | 0.00 | 11 | 1001.9 |
| 20260505023002 | 76 | 237 | 10.4 | 15.6 | 0.00 | 0.00 | 0.00 | 10 | 1001.6 |
| 20260505021600 | 77 | 226 | 11.3 | 18.2 | 0.00 | 0.00 | 0.00 | 9 | 1001.7 |
| 20260505014548 | 78 | 238 | 11.3 | 15.6 | 0.00 | 0.00 | 0.00 | 9 | 1001.8 |
| 20260505013046 | 78 | 226 | 10.4 | 18.2 | 0.00 | 0.00 | 0.00 | 9 | 1001.7 |
| 20260505011540 | 80 | 193 | 13.0 | 17.4 | 0.00 | 0.00 | 0.00 | 9 | 1001.5 |
| 20260505010054 | 81 | 232 | 14.8 | 21.7 | 0.00 | 0.00 | 0.00 | 8 | 1001.7 |